Regional Weather Roundup
Issued by NWS

Home | Current Version | Previous Version | Graphics & Text | Print | Product List | Glossary On
Versions: 1 2 3 4 5 6 7 8 9 10 11 12 13 14 15 16 17 18 19 20 21 22 23 24 25 26 27 28 29 30 31 32 33 34 35 36 37 38 39 40 41 42 43 44 45 46 47 48 49 50
000
ASUS43 KLMK 202210
RWRKY
KENTUCKY REGIONAL WEATHER ROUNDUP
NATIONAL WEATHER SERVICE LOUISVILLE KY
600 PM EDT SAT SEP 20 2014

NOTE "FAIR" INDICATES FEW OR NO CLOUDS BELOW 12,000 FEET
WITH NO SIGNIFICANT WEATHER AND/OR OBSTRUCTIONS TO VISIBILITY.

KYZ001>023-026-027-061>063-070>075-202300-
WESTERN AND SOUTH CENTRAL KENTUCKY

CITY           SKY/WX    TMP DP  RH WIND       PRES   REMARKS
PADUCAH        PTSUNNY   87  67  51 SW10      29.96F HX  90
HENDERSON      SUNNY     86  63  45 SW12      29.95F
OWENSBORO      MOSUNNY   87  66  49 SW13      29.96F
HOPKINSVILLE   MOSUNNY   83  66  55 S9        29.98F
BOWLING GREEN  CLOUDY    77  66  68 SW8       30.00F
GLASGOW        PTSUNNY   80  64  57 SW5       30.00F
$$

KYZ024-025-028>034-038-045-046-053-202300-
NORTH CENTRAL KENTUCKY

CITY           SKY/WX    TMP DP  RH WIND       PRES   REMARKS
LOUISVILLE/SDF MOSUNNY   83  65  54 SW13      29.95F
LOUISVILLE/LOU MOSUNNY   82  64  54 SW10G20   29.96F
FORT KNOX      MOSUNNY   83  64  54 S12       29.96F
$$

KYZ035>037-039>044-047>052-055>060-089>105-202300-
NORTHEAST KENTUCKY

CITY           SKY/WX    TMP DP  RH WIND       PRES   REMARKS
LEXINGTON      MOSUNNY   82  64  54 SW10      30.00F
COVINGTON      PTSUNNY   80  62  54 SW12G20   29.96F
FRANKFORT      MOSUNNY   80  65  59 SW10      29.98F
$$

KYZ054-064>069-076>088-106>120-202300-
SOUTHEAST KENTUCKY

CITY           SKY/WX    TMP DP  RH WIND       PRES   REMARKS
JACKSON        SUNNY     79  64  60 CALM      30.05F
LONDON         MOSUNNY   81  61  50 W6        30.05F
SOMERSET       MOSUNNY   79  61  53 W5        30.04F
MIDDLESBORO    SUNNY     78  65  65 NW6       30.05F
MONTICELLO     CLEAR     83  64  52 SW6       30.05F
$$




USA.gov is the U.S. government's official web portal to all federal, state and local government web resources and services.